TimeCST,TemperatureF,Dew PointF,Humidity,Sea Level PressureIn,VisibilityMPH,Wind Direction,Wind SpeedMPH,Gust SpeedMPH,PrecipitationIn,Events,Conditions,WindDirDegrees,DateUTC
12:20 AM,33.8,30.2,87,30.12,3.0,NW,15.0,21.9,0.00,Rain,Light Freezing Rain,310,2013-01-17 06:20:00
12:25 AM,33.8,30.2,87,30.12,2.5,NW,9.2,20.7,0.01,Snow,Light Snow,310,2013-01-17 06:25:00
12:33 AM,33.8,30.2,87,30.12,3.0,NW,11.5,19.6,0.01,Snow,Light Snow,310,2013-01-17 06:33:00
12:48 AM,33.8,30.2,87,30.12,5.0,NW,10.4,20.7,0.01,,Overcast,320,2013-01-17 06:48:00
12:53 AM,33.1,30.9,92,30.12,5.0,NW,8.1,17.3,0.01,,Overcast,310,2013-01-17 06:53:00
1:53 AM,33.1,30.9,92,30.13,2.5,NW,15.0,25.3,0.00,Snow,Light Snow,320,2013-01-17 07:53:00
2:06 AM,33.8,30.2,87,30.14,1.5,NW,13.8,25.3,0.00,Snow,Light Snow,310,2013-01-17 08:06:00
2:48 AM,32.0,30.2,93,30.15,2.0,NNW,10.4,20.7,0.01,Snow,Light Snow,330,2013-01-17 08:48:00
2:53 AM,32.0,30.0,92,30.14,2.0,NNW,15.0,26.5,0.01,Snow,Light Snow,330,2013-01-17 08:53:00
2:58 AM,32.0,30.2,93,30.15,1.8,NNW,13.8,26.5,0.00,Snow,Light Snow,330,2013-01-17 08:58:00
3:38 AM,32.0,30.2,93,30.16,2.5,NW,15.0,23.0,0.00,Snow,Light Snow,310,2013-01-17 09:38:00
3:53 AM,33.1,30.0,89,30.16,2.5,NW,12.7,20.7,0.00,Snow,Light Snow,310,2013-01-17 09:53:00
4:00 AM,33.8,30.2,87,30.16,1.8,WNW,9.2,19.6,0.00,Snow,Light Snow,300,2013-01-17 10:00:00
4:23 AM,32.0,30.2,93,30.17,1.0,NW,11.5,-,0.01,Snow,Light Snow,310,2013-01-17 10:23:00
4:33 AM,33.8,30.2,87,30.17,0.8,NW,11.5,18.4,0.01,Snow,Light Snow,310,2013-01-17 10:33:00
4:53 AM,33.1,30.9,92,30.17,0.8,NW,12.7,-,0.02,Snow,Light Snow,320,2013-01-17 10:53:00
5:04 AM,33.8,30.2,87,30.17,1.5,NW,11.5,17.3,0.00,Snow,Light Snow,320,2013-01-17 11:04:00
5:12 AM,33.8,30.2,87,30.18,2.5,NW,9.2,17.3,0.01,Snow,Light Snow,310,2013-01-17 11:12:00
5:30 AM,33.8,32.0,93,30.18,4.0,NW,11.5,-,0.01,Snow,Light Snow,320,2013-01-17 11:30:00
5:53 AM,34.0,32.0,92,30.19,8.0,NW,12.7,18.4,0.01,Snow,Light Snow,320,2013-01-17 11:53:00
6:00 AM,33.8,32.0,93,30.19,9.0,NW,11.5,19.6,0.00,,Overcast,310,2013-01-17 12:00:00
6:53 AM,33.1,32.0,96,30.20,2.5,WNW,8.1,-,0.00,Snow,Light Snow,290,2013-01-17 12:53:00
7:02 AM,33.8,32.0,93,30.21,1.5,NW,9.2,-,0.00,Snow,Light Snow,310,2013-01-17 13:02:00
7:16 AM,33.8,32.0,93,30.22,1.0,NW,8.1,-,0.01,Snow,Light Snow,310,2013-01-17 13:16:00
7:24 AM,33.8,32.0,93,30.22,0.5,NNW,8.1,-,0.02,Fog-Snow,Snow,330,2013-01-17 13:24:00
7:48 AM,33.8,32.0,93,30.22,1.5,NNW,10.4,19.6,0.04,Snow,Light Snow,340,2013-01-17 13:48:00
7:53 AM,34.0,32.0,92,30.21,2.5,NNW,8.1,-,0.04,Snow,Light Snow,340,2013-01-17 13:53:00
8:01 AM,33.8,32.0,93,30.22,6.0,NNW,8.1,-,0.00,Snow,Light Snow,340,2013-01-17 14:01:00
8:08 AM,33.8,32.0,93,30.22,1.8,North,5.8,-,0.00,Snow,Light Snow,360,2013-01-17 14:08:00
8:20 AM,33.8,33.8,100,30.23,2.5,NNW,3.5,-,0.00,Snow,Light Snow,340,2013-01-17 14:20:00
8:27 AM,33.8,33.8,100,30.23,7.0,NNW,4.6,-,0.00,Snow,Light Snow,340,2013-01-17 14:27:00
8:53 AM,35.1,33.1,92,30.25,9.0,Calm,Calm,-,0.01,,Mostly Cloudy,0,2013-01-17 14:53:00
9:51 AM,37.4,33.8,87,30.27,10.0,WNW,6.9,-,N/A,,Scattered Clouds,290,2013-01-17 15:51:00
9:53 AM,37.0,34.0,89,30.27,10.0,WNW,5.8,-,N/A,,Scattered Clouds,300,2013-01-17 15:53:00
10:09 AM,37.4,35.6,93,30.27,10.0,NW,5.8,-,N/A,,Mostly Cloudy,310,2013-01-17 16:09:00
11:00 AM,42.8,35.6,76,30.26,10.0,WNW,6.9,-,N/A,,Scattered Clouds,290,2013-01-17 17:00:00
11:53 AM,46.0,37.0,71,30.26,10.0,WNW,9.2,-,N/A,,Partly Cloudy,300,2013-01-17 17:53:00
12:53 PM,46.9,32.0,56,30.24,10.0,NW,11.5,18.4,N/A,,Overcast,320,2013-01-17 18:53:00
1:53 PM,48.9,32.0,52,30.25,10.0,NW,9.2,18.4,N/A,,Mostly Cloudy,320,2013-01-17 19:53:00
2:53 PM,50.0,33.1,52,30.26,10.0,NW,12.7,19.6,N/A,,Clear,310,2013-01-17 20:53:00
3:53 PM,50.0,33.1,52,30.30,10.0,NNW,9.2,-,N/A,,Clear,340,2013-01-17 21:53:00
4:53 PM,48.0,34.0,58,30.33,10.0,NNW,9.2,-,N/A,,Clear,330,2013-01-17 22:53:00
5:53 PM,45.0,34.0,65,30.35,10.0,NNW,3.5,-,N/A,,Clear,330,2013-01-17 23:53:00
6:53 PM,44.1,35.1,71,30.38,10.0,Calm,Calm,-,N/A,,Clear,0,2013-01-18 00:53:00
7:53 PM,41.0,35.1,79,30.40,10.0,Calm,Calm,-,N/A,,Clear,0,2013-01-18 01:53:00
8:53 PM,42.1,35.1,76,30.42,10.0,NNW,4.6,-,N/A,,Clear,340,2013-01-18 02:53:00
9:53 PM,42.1,35.1,76,30.43,10.0,North,5.8,-,N/A,,Clear,360,2013-01-18 03:53:00
10:53 PM,41.0,34.0,76,30.43,10.0,North,3.5,-,N/A,,Clear,350,2013-01-18 04:53:00
11:53 PM,39.0,34.0,82,30.45,10.0,Calm,Calm,-,N/A,,Clear,0,2013-01-18 05:53:00